Hovedside
METAR-TAF:

METAR-TAF

Lufthavner :

Flystasjon

Ismaïlia, Egypt

breddegrad: 30-35-54N, lengdegrad: 032-14-13E, høyde over havet: 13 m

Gjeldene værobservasjon

Denne rapporten ble laget for 13 timer og 10 minutter siden, klokken 16:00 UTC
Vind 8 kt fra Nord-nordøst
Temperatur 13°C
Luftfuktighet 51%
Trykk 1023 hPa
Sikt 10 km eller mer
Spredte skyer i en høyde av 2500 ft
Spredte skyer i en høyde av 3000 ft

METAR: HEIS 171600Z 03008KT 9999 SCT025 SCT030 13/03 Q1023

Tid: 07:10 (05:10 UTC)


TAF: fraværende

Værobservasjoner og værvarsel for over 4000 flyplasser (METAR- og TAF-rapporter).

Tilgjengelige stasjoner er representert av de røde og gule prikkene på kartet.

Hold musepekeren over prikken for å se navnet på stasjonen.

Klikk så for å se værobservasjoner og -varsler.

For å forandre kartet kan du klikke på den grønne knappen med svart kryss for å zoome inn, på den grønne knappen med strek for å zoome ut, eller på de grønne pilene for å se tilstøtende kart.


METAR-TAF: